CAPE
41 0 1 2 0 0 0 6 4 10 1 13 7 0 0 17 21 65 55 44 8 17 31 26 10 0 0 0 0 0 0 0 3 9 1 0 0 0 0 0 0 0 0 0
17 9 0 0 0 0 7 4 3 8 6 11 6 0 0 3 7 62 63 24 0 0 0 20 59 0 0 0 0 0 0 0 46 14 7 0 0 0 0 0 0 0 0 0
21 4 2 0 0 0 1 4 3 5 11 2 11 5 2 0 29 15 102 54 3 0 0 50 76 16 10 0 0 0 21 66 87 3 0 0 0 0 0 0 0 0 0 0
23 10 9 1 0 1 0 4 4 5 5 0 12 0 0 0 7 26 6 22 38 24 47 134 74 1 6 3 0 1 16 16 0 0 0 0 0 0 0 0 0 0 0 0
0 7 19 5 1 0 1 2 3 4 5 4 2 0 0 0 0 23 33 58 42 64 155 59 1 0 0 0 0 0 0 0 0 0 0 0 0 0 0 0 0 0 0 0
2 0 0 10 11 2 8 5 6 5 0 0 1 0 0 0 0 0 34 77 86 120 23 0 0 0 0 0 0 0 0 0 0 0 0 0 0 0 0 0 0 0 0 0
1 0 0 0 11 4 14 2 0 0 0 0 3 0 0 0 0 0 2 54 86 44 0 0 0 0 0 0 0 0 0 0 0 0 0 0 0 0 0 0 0 0 0 0
0 0 0 0 21 34 9 0 0 0 0 0 2 0 0 0 0 0 0 71 25 0 0 0 0 0 0 0 0 0 0 0 0 0 0 0 0 0 0 0 0 0 0 0
4 0 1 3 6 24 29 20 2 3 0 0 0 1 0 0 0 0 0 0 0 2 1 0 0 0 0 0 0 0 0 0 0 0 0 0 0 0 0 0 0 0 0 0
2 0 18 18 2 12 15 6 0 0 0 0 0 0 0 0 0 0 0 0 1 0 0 0 0 0 0 0 0 0 0 0 0 0 0 0 0 0 0 0 0 0 0 0
3 3 1 2 0 0 2 12 0 0 4 1 0 0 0 0 0 0 0 0 0 0 0 0 0 0 0 0 0 0 0 0 0 0 0 0 0 0 0 0 0 0 0 0
0 0 0 0 0 1 2 0 4 18 0 0 2 0 0 0 0 0 0 0 0 0 0 0 0 0 0 0 0 0 0 0 0 0 0 0 0 0 0 0 0 0 0 0
0 0 0 0 1 1 1 0 4 0 0 0 0 0 0 0 0 0 0 0 0 0 0 0 0 0 0 0 0 0 0 0 0 0 0 0 0 0 0 0 0 0 0 0
0 0 0 0 1 0 0 0 1 0 0 0 0 0 0 0 0 0 0 0 0 0 0 0 0 0 0 0 0 0 0 0 0 0 0 0 0 0 0 0 0 0 0 0
0 0 0 1 1 0 0 1 2 0 0 0 0 0 0 0 0 0 0 0 0 0 0 0 0 0 0 0 0 0 0 0 0 0 0 0 0 0 0 0 0 0 0 0
0 0 0 0 1 0 0 0 0 0 0 0 0 0 0 0 0 0 0 0 0 0 0 0 0 0 0 0 0 0 0 0 0 0 0 0 0 0 0 0 0 0 0 0
0 0 0 0 0 0 0 0 0 1 0 0 0 0 0 0 0 0 0 0 0 0 0 0 0 0 0 0 0 0 0 0 0 0 0 0 0 0 0 0 0 0 0 0
0 0 0 0 0 0 0 0 0 0 1 0 0 0 0 0 0 0 0 0 0 0 0 0 0 0 0 0 0 0 0 0 0 0 0 0 0 0 0 0 0 0 0 0
0 0 0 0 0 0 0 0 0 3 0 0 0 0 0 0 0 0 0 0 0 0 0 0 0 0 0 0 0 0 0 0 0 0 0 0 0 0 0 0 0 0 0 0
0 0 0 0 0 0 0 0 0 0 0 0 0 0 0 0 0 0 0 0 0 0 0 0 0 0 0 0 0 0 0 0 0 0 0 0 0 0 0 0 0 0 0 0
1 0 0 0 0 0 0 0 0 0 0 0 0 0 0 0 0 0 0 0 0 0 0 0 0 0 0 0 0 0 0 0 0 0 0 0 0 0 0 0 0 0 0 0
0 0 0 0 0 0 0 0 0 0 0 0 0 0 0 0 0 0 0 0 0 0 0 0 0 0 0 0 0 0 0 0 0 0 0 0 0 0 0 0 0 0 0 0
0 0 0 0 0 0 0 0 0 0 0 0 0 0 0 0 0 0 0 0 0 0 0 0 0 0 0 0 0 0 0 0 0 0 0 0 0 0 0 0 0 0 0 0
0 0 0 0 0 0 0 0 0 0 0 0 0 0 0 0 0 0 0 0 0 0 0 0 0 0 0 0 0 0 0 0 0 0 0 0 0 0 0 0 0 0 0 0
0 0 0 0 0 0 0 0 0 0 0 0 0 0 0 0 0 0 0 0 0 0 0 0 0 0 0 0 0 0 0 0 0 0 0 0 0 0 0 0 0 0 0 0
0 0 0 0 0 0 0 0 0 0 0 0 0 0 0 0 0 0 0 0 0 0 0 0 0 0 0 0 0 0 0 0 0 0 0 0 0 0 0 0 0 0 0 0
CIN
-11 0 -2 0 0 0 0 0 0 0 -11 -2 0 0 0 -45 -54 -71 -135 -134 -153 -84 -61 -51 -10 0 0 0 0 0 0 0 -5 -4 -14 0 0 0 0 0 0 0 0 0
-4 0 0 0 0 0 0 0 0 0 -4 0 -1 0 0 -34 -40 -48 -105 -113 0 0 -5 -62 -44 -1 0 0 0 0 0 0 -17 -16 -21 0 0 0 0 0 0 0 0 0
0 0 -1 0 0 0 0 0 0 0 -1 -3 -1 -1 -2 0 -34 -73 -72 -99 -90 -24 0 -45 -45 -45 -13 -4 0 0 -36 -17 -16 -29 0 0 0 0 0 0 0 0 0 0
-2 -2 -5 -1 0 0 0 0 0 -1 0 0 0 0 0 0 -6 -38 -67 -102 -77 -105 -46 -8 -29 -37 -40 -47 -9 -7 -40 -37 -8 -12 0 0 0 0 0 0 0 0 0 0
0 -14 0 0 -2 0 0 -1 0 0 0 0 0 0 -4 0 0 -13 -21 -61 -61 -60 -16 -41 -23 0 0 0 0 0 0 0 0 0 0 0 0 0 0 0 0 0 0 0
-1 0 0 -5 -8 0 -1 -1 0 0 0 0 0 0 0 0 0 0 -31 -52 -54 -80 -85 0 0 0 0 0 0 0 0 0 0 0 0 0 0 0 0 0 0 0 0 0
0 0 0 0 -1 0 0 0 0 0 0 0 0 0 0 0 0 0 -20 -68 -73 -124 0 0 0 0 0 0 0 0 0 0 0 0 0 0 0 0 0 0 0 0 0 0
0 -1 0 -1 -2 -14 -2 0 0 0 0 0 0 0 0 0 0 0 0 -101 -174 0 0 0 0 0 0 0 0 0 0 0 0 0 0 0 0 0 0 0 0 0 0 0
-5 0 0 -1 -15 -32 -1 -6 -18 -10 0 0 0 0 0 0 0 -9 0 0 0 0 0 0 0 0 0 0 0 0 0 0 0 0 0 0 0 0 0 0 0 0 0 0
-12 0 -2 -1 0 -22 -25 -68 -3 0 0 0 0 0 0 0 0 0 0 0 0 0 0 0 0 0 0 0 0 0 0 0 0 0 0 0 0 0 0 0 0 0 0 0
-4 -9 -1 -2 0 0 -20 -12 -8 -17 -32 -1 0 0 0 0 0 0 0 0 0 0 0 0 0 0 0 0 0 0 0 0 0 0 0 0 0 0 0 0 0 0 0 0
0 -2 0 0 0 0 0 0 -47 -24 0 0 -9 0 0 0 0 0 0 0 0 0 0 0 0 0 0 0 0 0 0 0 0 0 0 0 0 0 0 0 0 0 0 0
0 0 0 0 0 0 0 0 -47 0 0 0 0 0 0 0 0 0 0 0 0 0 0 0 0 0 0 0 0 0 0 0 0 0 0 0 0 0 0 0 0 0 0 0
0 0 0 -2 -2 0 0 0 -19 0 0 0 0 0 0 0 0 0 0 0 0 0 0 0 0 0 0 0 0 0 0 0 0 0 0 0 0 0 0 0 0 0 0 0
-1 0 0 -1 -2 0 0 0 0 0 0 0 0 0 0 0 0 0 0 0 0 0 0 0 0 0 0 0 0 0 0 0 0 0 0 0 0 0 0 0 0 0 0 0
0 0 0 0 -3 0 0 0 0 0 0 0 0 0 0 0 0 0 0 0 0 0 0 0 0 0 0 0 0 0 0 0 0 0 0 0 0 0 0 0 0 0 0 0
0 0 -6 0 0 0 0 0 0 0 0 0 0 0 0 0 0 0 0 0 0 0 0 0 0 0 0 0 0 0 0 0 0 0 0 0 0 0 0 0 0 0 0 0
0 0 0 0 0 0 0 0 0 0 0 0 0 0 0 0 0 0 0 0 0 0 0 0 0 0 0 0 0 0 0 0 0 0 0 0 0 0 0 0 0 0 0 0
0 0 0 0 0 0 0 0 0 0 0 0 0 0 0 0 0 0 0 0 0 0 0 0 0 0 0 0 0 0 0 0 0 0 0 0 0 0 0 0 0 0 0 0
0 0 0 0 0 0 0 0 0 0 0 0 0 0 0 0 0 0 0 0 0 0 0 0 0 0 0 0 0 0 0 0 0 0 0 0 0 0 0 0 0 0 0 0
0 0 0 0 0 0 0 0 0 0 0 0 0 0 0 0 0 0 0 0 0 0 0 0 0 0 0 0 0 0 0 0 0 0 0 0 0 0 0 0 0 0 0 0
-2 -2 0 0 0 0 0 0 0 0 0 0 0 0 0 0 0 0 0 0 0 0 0 0 0 0 0 0 0 0 0 0 0 0 0 0 0 0 0 0 0 0 0 0
0 0 0 0 0 0 0 0 0 0 0 0 0 0 0 0 0 0 0 0 0 0 0 0 0 0 0 0 0 0 0 0 0 0 0 0 0 0 0 0 0 0 0 0
0 0 0 0 0 0 0 0 0 0 0 0 0 0 0 0 0 0 0 0 0 0 0 0 0 0 0 0 0 0 0 0 0 0 0 0 0 0 0 0 0 0 0 0
0 0 0 0 0 0 0 0 0 0 0 0 0 0 0 0 0 0 0 0 0 0 0 0 0 0 0 0 0 0 0 0 0 0 0 0 0 0 0 0 0 0 0 0
0 0 0 0 0 0 0 0 0 0 0 0 0 0 0 0 0 0 0 0 0 0 0 0 0 0 0 0 0 0 0 0 0 0 0 0 0 0 0 0 0 0 0 0
Wind_Speed
36 45 51 45 41 36 37 36 39 40 39 48 44 39 32 29 24 21 19 17 19 20 14 13 12 10 9 8 8 7 7 6 5 3 2 3 5 9 12 14 15 17 19 20
29 48 39 37 34 33 33 38 39 34 32 37 41 49 42 30 28 24 22 18 17 18 19 17 14 11 10 9 8 7 7 8 6 3 3 6 5 9 11 14 16 18 19 20
34 29 34 41 37 35 29 28 30 34 34 38 36 42 44 38 28 27 27 22 17 15 17 18 13 11 10 9 8 7 7 7 5 2 2 3 6 9 12 14 16 18 19 20
34 21 28 38 34 24 30 21 23 34 28 35 36 37 49 45 30 25 29 28 20 16 17 15 13 11 9 8 7 6 6 5 4 3 2 2 6 9 12 12 14 16 18 19
33 25 30 31 32 22 27 19 19 22 33 31 33 32 35 44 39 28 27 25 23 13 14 13 12 9 8 7 7 6 5 4 3 2 2 3 6 8 8 11 13 16 18 20
26 22 23 26 27 17 19 18 16 13 18 39 36 29 31 42 41 30 25 26 22 17 12 12 11 10 10 9 8 7 6 8 4 3 3 3 5 6 8 11 13 16 18 21
23 27 25 25 23 20 24 15 17 20 22 26 27 36 29 30 31 36 30 26 24 19 16 15 14 12 11 11 9 8 6 6 6 4 4 4 6 6 8 10 13 15 18 21
30 33 25 28 26 24 23 19 19 17 19 19 17 27 30 25 22 28 31 23 21 23 19 18 13 13 11 11 9 8 6 5 5 4 5 5 6 8 10 12 14 17 20 21
25 28 18 20 26 22 26 22 17 15 16 15 16 17 25 20 19 16 19 22 21 19 19 16 10 11 9 10 8 6 5 5 5 4 3 5 6 7 9 12 15 17 18 21
21 28 21 19 22 22 23 19 19 15 18 17 16 16 16 21 18 15 15 16 17 17 17 15 14 12 12 12 11 8 8 5 3 3 4 5 6 9 12 15 18 19 18 16
19 21 24 22 21 21 20 25 19 15 15 16 15 17 12 15 13 15 13 13 14 14 14 14 13 11 11 9 8 6 5 4 3 3 5 7 9 11 15 16 14 14 15 16
19 20 27 23 19 19 23 21 20 19 16 14 12 14 14 15 12 9 9 9 10 11 11 10 11 11 10 8 6 5 4 3 5 5 7 9 11 13 11 12 14 15 15 16
21 24 29 27 21 17 13 17 20 18 18 17 15 14 12 6 4 4 4 7 7 7 6 5 4 6 6 6 5 3 3 3 5 7 9 12 12 10 12 14 15 14 14 14
19 22 24 29 23 21 24 22 22 20 24 20 17 15 14 11 9 7 6 4 4 4 3 3 4 6 6 6 3 2 3 4 6 8 8 7 8 11 14 11 11 11 12 15
19 22 23 21 20 20 22 22 22 22 22 21 21 19 16 13 10 8 3 2 1 0 4 5 5 6 4 4 1 4 6 6 5 5 6 9 10 9 9 10 11 12 14 16
21 24 22 26 21 23 23 23 23 22 20 21 18 16 17 7 4 4 6 7 7 9 9 7 7 10 8 4 1 4 3 2 2 4 4 6 7 9 10 10 12 13 15 17
22 23 21 28 20 22 26 21 15 13 12 18 21 14 10 6 3 4 7 8 9 10 11 10 6 8 8 7 5 5 5 4 2 3 5 7 9 11 11 12 13 14 16 17
25 25 22 23 19 29 19 17 19 13 11 17 11 11 12 7 6 5 8 8 8 9 10 12 9 6 4 4 2 1 1 1 3 5 8 9 11 12 12 13 15 16 17 19
29 24 24 23 25 21 19 16 16 14 20 21 17 13 11 7 7 9 7 3 5 6 7 8 6 4 2 2 2 2 3 4 6 9 10 11 13 13 14 15 16 17 19 20
29 30 25 24 24 27 17 17 17 18 15 20 21 14 7 11 12 12 10 7 7 5 2 1 1 4 4 6 6 5 7 10 12 12 13 13 14 15 17 17 19 21 21 21
28 30 32 23 24 19 17 17 16 17 19 16 12 8 6 13 11 8 7 9 9 9 11 11 11 10 11 9 8 10 11 12 13 13 14 16 17 17 18 19 20 21 23 23
27 26 28 22 22 21 16 15 15 13 14 14 13 8 6 7 8 8 8 8 9 10 12 13 12 12 11 9 9 11 12 13 14 16 17 17 17 18 19 21 22 22 23 25
22 22 24 20 18 15 14 12 12 13 12 10 8 6 4 5 7 8 9 10 11 13 15 16 15 15 15 13 13 14 15 16 16 17 17 18 19 20 21 22 23 25 24 25
19 18 18 19 18 14 13 11 11 10 9 8 7 6 5 6 7 9 10 12 14 16 18 17 17 18 18 16 16 17 19 18 18 19 20 21 22 23 23 24 24 26 25 26
18 18 16 17 17 12 12 10 9 8 7 8 9 9 8 8 9 11 13 15 17 18 19 18 19 21 21 22 22 21 20 19 20 21 22 23 25 25 26 24 24 24 24 25
16 15 13 15 14 15 11 9 8 7 8 9 8 10 11 12 13 14 16 18 19 20 21 22 22 24 26 27 25 24 22 21 23 25 25 22 22 23 24 26 28 25 26 27
Wind_Direction
226 223 220 221 230 240 246 253 241 228 230 227 228 231 231 232 234 225 226 233 233 238 237 227 228 216 210 180 173 179 180 180 187 216 266 317 330 338 343 347 350 352 353 355
228 224 229 229 231 238 258 242 237 233 226 217 224 228 231 238 237 230 229 234 232 236 238 238 232 209 208 205 186 181 178 172 186 204 277 301 324 340 349 349 350 352 355 356
226 236 232 225 228 237 255 250 242 229 224 229 230 234 233 239 243 236 234 233 237 230 225 229 215 202 209 215 203 184 182 180 194 233 275 329 351 345 339 342 348 351 356 358
229 249 226 221 226 246 237 259 255 228 221 223 225 236 224 231 238 234 233 232 238 234 224 225 211 216 217 230 227 221 231 224 227 230 233 279 308 319 331 346 352 353 356 358
224 238 226 222 230 242 248 255 258 243 225 228 224 235 232 227 232 233 230 230 229 222 205 209 204 213 224 233 232 241 247 256 256 264 272 306 321 336 349 352 353 355 356 357
231 242 239 231 224 250 239 249 247 251 238 230 231 236 236 226 229 234 230 231 229 218 218 215 210 221 233 245 251 253 262 279 274 274 291 303 319 332 339 342 346 347 349 349
236 234 241 234 229 245 222 235 239 238 236 236 232 235 245 239 236 235 233 233 232 228 223 211 219 220 231 238 259 264 263 275 288 296 314 327 330 335 339 341 342 342 343 343
221 215 233 230 231 235 232 242 240 236 237 238 237 238 239 244 250 244 239 232 227 229 229 232 232 235 238 245 249 255 259 269 285 302 316 338 348 343 346 347 347 345 343 344
227 223 250 241 236 244 228 236 249 252 252 248 245 260 244 246 245 246 234 224 226 225 230 224 237 249 250 251 254 250 250 272 289 311 335 347 352 351 353 349 346 346 346 344
242 225 245 241 246 238 239 238 243 252 239 237 250 251 246 239 240 236 234 222 226 229 233 241 250 254 258 258 260 268 270 277 310 338 358 7 359 350 345 345 340 336 344 355
246 242 235 240 244 240 241 234 245 248 255 243 245 250 275 257 239 233 232 229 230 237 243 249 254 256 256 257 260 263 268 276 310 334 342 341 340 338 337 337 344 352 0 357
252 244 229 234 251 259 250 240 242 238 242 254 261 262 265 264 249 236 230 230 242 249 253 256 254 248 241 243 242 244 261 287 303 318 330 328 329 331 346 350 347 351 350 354
254 239 229 231 242 251 258 249 245 247 247 246 254 250 270 296 288 265 238 252 255 258 264 267 223 206 206 209 200 216 251 298 306 313 317 312 329 351 347 342 346 352 360 5
255 246 236 229 238 248 246 252 250 249 244 249 260 258 261 271 278 280 269 274 277 259 236 173 149 151 160 163 201 236 296 304 313 314 326 350 348 341 340 7 5 9 359 351
252 242 246 248 256 259 257 256 249 248 248 249 250 254 261 267 275 279 339 356 351 42 134 147 153 137 145 158 208 300 315 309 316 333 334 325 354 12 15 5 357 352 347 344
255 244 249 243 257 259 256 258 254 254 254 259 259 264 274 294 7 358 76 94 101 116 129 134 132 126 129 130 321 326 345 354 5 75 28 14 7 0 354 350 346 343 341 339
251 244 247 237 251 256 252 255 258 268 279 268 255 277 289 303 329 38 82 98 105 118 131 137 141 135 136 134 115 121 125 117 92 2 349 343 342 339 338 339 337 334 333 334
246 242 246 243 243 236 256 263 249 259 272 249 267 266 268 302 335 39 100 112 115 126 137 141 141 141 138 124 120 119 148 264 304 318 322 328 329 328 328 329 326 326 328 327
237 239 239 238 237 255 263 264 254 252 246 240 245 257 275 304 315 318 349 44 114 132 141 149 153 157 156 253 291 305 296 286 296 302 310 317 320 319 320 321 320 323 323 323
231 234 238 237 238 236 266 262 256 252 264 252 249 270 300 287 297 298 320 339 331 3 38 187 248 291 283 297 294 288 295 299 298 304 307 312 314 315 316 316 318 320 321 320
221 227 228 237 239 254 267 263 257 261 265 285 287 292 324 293 315 1 4 342 343 342 324 319 318 314 314 316 309 300 303 297 304 308 309 311 312 312 314 316 318 318 317 318
219 221 225 235 238 245 269 260 265 286 300 293 289 296 319 352 6 13 7 356 355 348 331 326 331 332 336 334 323 312 307 312 311 311 311 311 312 313 314 315 317 317 316 314
218 228 223 234 244 258 268 274 291 298 305 312 314 322 10 23 10 9 353 356 350 339 331 332 335 337 336 334 328 321 321 319 316 315 312 312 313 313 314 314 313 313 313 313
232 232 232 235 249 256 264 288 304 310 320 336 359 8 7 18 358 356 359 352 343 334 335 341 343 338 336 339 333 327 324 322 318 314 313 313 311 311 311 312 312 312 312 311
225 230 237 245 242 256 271 286 301 328 351 9 10 14 14 7 346 343 337 336 335 338 338 344 338 335 333 329 325 325 324 322 318 315 313 312 311 311 311 310 310 309 309 309
221 233 234 242 242 259 267 289 307 333 344 352 2 358 349 346 339 334 332 333 335 336 338 336 335 331 325 325 326 326 325 322 319 316 316 314 313 313 311 310 310 307 307 309